Total_Precipitation_Accumulation
0.09 0.15 0.22 0.24 0.21 0.20 0.17 0.17 0.24 0.35 0.51 0.66 0.76 0.79 0.83 0.86 0.85 0.78 0.84 0.88 0.92 1.04 1.03 0.92 0.87 0.86 0.91 1.00 1.04 1.07 1.28 1.47 1.67 1.86 1.92 1.97 2.03 2.04 2.11 2.13 2.01 2.10 2.16 2.15
0.11 0.17 0.20 0.20 0.22 0.18 0.15 0.13 0.20 0.34 0.54 0.68 0.68 0.80 0.87 0.83 0.80 0.82 0.88 0.92 1.05 1.10 1.09 1.11 1.07 1.07 1.14 1.21 1.32 1.48 1.68 1.83 1.91 1.98 2.02 1.97 1.98 1.99 2.14 2.18 2.23 2.34 2.37 2.40
0.21 0.23 0.26 0.30 0.26 0.22 0.19 0.20 0.27 0.37 0.56 0.68 0.76 0.92 1.05 1.06 0.95 0.95 1.06 1.10 1.20 1.26 1.24 1.28 1.29 1.38 1.52 1.50 1.57 1.75 1.93 2.11 2.12 2.10 2.10 2.04 2.08 2.10 2.09 2.22 2.35 2.39 2.39 2.43
0.29 0.34 0.50 0.41 0.30 0.27 0.27 0.28 0.33 0.45 0.61 0.73 0.86 0.93 1.13 1.29 1.22 1.07 1.03 1.10 1.22 1.30 1.31 1.27 1.33 1.45 1.70 1.80 1.80 1.95 2.07 2.18 2.26 2.30 2.36 2.42 2.50 2.50 2.54 2.60 2.64 2.59 2.53 2.56
0.43 0.53 0.58 0.50 0.40 0.35 0.39 0.51 0.51 0.63 0.87 1.00 1.02 1.22 1.47 1.47 1.35 1.24 1.24 1.20 1.35 1.35 1.32 1.34 1.54 1.62 1.70 1.81 1.85 2.02 2.22 2.37 2.45 2.52 2.58 2.61 2.63 2.76 2.91 3.07 3.13 3.05 3.00 3.03
0.51 0.63 0.75 0.72 0.53 0.48 0.63 1.18 0.97 0.94 1.02 1.02 1.16 1.67 1.74 1.38 1.22 1.22 1.23 1.33 1.48 1.53 1.49 1.58 1.85 1.92 2.02 2.10 2.15 2.23 2.34 2.50 2.70 2.86 2.93 2.89 2.96 3.16 3.35 3.53 3.56 3.56 3.58 3.57
0.60 0.72 0.83 0.73 0.59 0.67 1.27 1.73 1.38 1.26 1.22 1.24 1.46 1.57 1.59 1.44 1.26 1.19 1.22 1.31 1.46 1.54 1.55 1.63 1.85 2.05 2.34 2.47 2.51 2.52 2.57 2.69 2.86 3.02 3.16 3.20 3.31 3.42 3.61 3.76 3.75 3.70 3.66 3.62
0.96 1.14 1.20 0.77 0.77 1.17 1.53 1.34 1.45 1.61 1.63 1.58 1.59 1.42 1.38 1.42 1.44 1.39 1.36 1.39 1.46 1.60 1.68 1.76 1.88 2.13 2.40 2.60 2.75 2.82 2.82 2.97 3.06 3.13 2.99 2.94 3.24 3.47 3.71 3.93 3.89 3.81 3.84 3.68
1.33 1.47 1.30 1.01 1.10 1.18 1.18 1.31 1.43 1.54 1.69 1.74 1.72 1.72 1.61 1.67 1.64 1.56 1.49 1.44 1.44 1.51 1.64 1.73 1.80 2.01 2.41 2.58 2.69 2.79 2.88 2.94 3.07 3.11 3.09 3.15 3.38 3.57 3.80 3.91 3.84 3.73 3.68 3.58
1.55 1.59 1.44 1.34 1.36 1.39 1.42 1.45 1.46 1.51 1.63 1.71 1.74 1.83 1.77 1.72 1.56 1.44 1.37 1.40 1.49 1.56 1.68 1.76 1.69 1.83 2.03 2.24 2.41 2.50 2.56 2.57 2.57 2.69 2.85 3.09 3.41 3.50 3.57 3.61 3.63 3.60 3.48 3.34
1.94 2.03 1.96 1.81 1.80 1.78 1.68 1.72 1.76 1.71 1.69 1.72 1.64 1.69 1.69 1.55 1.40 1.35 1.39 1.35 1.43 1.60 1.61 1.66 1.74 1.74 1.79 1.84 2.04 2.22 2.25 2.26 2.35 2.47 2.65 2.87 3.08 3.23 3.19 3.21 3.42 3.32 3.08 2.91
2.06 2.10 2.28 2.24 2.03 1.96 1.81 1.85 1.87 1.81 1.71 1.67 1.64 1.66 1.62 1.52 1.44 1.40 1.40 1.42 1.43 1.51 1.53 1.56 1.68 1.76 1.74 1.85 2.01 2.07 2.01 2.01 2.04 2.11 2.29 2.46 2.60 2.71 2.75 2.54 2.60 2.51 2.35 2.21
1.75 1.87 2.02 2.16 2.09 2.07 2.08 1.97 1.92 1.92 1.80 1.74 1.65 1.57 1.48 1.47 1.47 1.41 1.44 1.50 1.54 1.57 1.59 1.65 1.67 1.70 1.76 1.94 2.10 2.17 2.08 2.03 2.02 2.05 2.18 2.22 2.24 2.29 2.35 2.25 2.13 2.05 1.88 1.73
1.87 2.07 2.38 2.49 2.36 2.16 2.13 2.04 1.93 2.03 2.07 2.05 1.82 1.59 1.44 1.41 1.41 1.49 1.55 1.65 1.70 1.70 1.67 1.70 1.71 1.67 1.67 1.82 2.00 2.29 2.38 2.33 2.20 2.13 2.14 2.08 2.07 2.15 2.27 2.29 2.16 1.92 1.72 1.50
2.04 2.18 2.39 2.43 2.27 2.12 2.06 2.02 1.99 2.06 2.16 2.08 1.94 1.74 1.59 1.55 1.60 1.63 1.63 1.66 1.69 1.68 1.71 1.69 1.69 1.72 1.75 1.83 1.90 2.06 2.29 2.27 2.16 2.14 2.17 2.25 2.22 2.20 2.28 2.28 2.33 2.22 1.93 1.68
2.09 2.14 2.28 2.29 2.24 2.09 1.96 1.99 2.06 1.99 1.92 1.89 1.89 1.77 1.71 1.58 1.53 1.51 1.60 1.74 1.93 1.92 1.80 1.81 1.80 1.78 1.75 1.74 1.76 1.89 2.03 2.11 2.02 1.99 1.99 2.13 2.19 2.18 2.21 2.33 2.34 2.22 2.00 1.71
2.01 2.15 2.31 2.31 2.19 1.99 1.92 2.01 2.04 1.96 1.83 1.69 1.77 1.72 1.67 1.66 1.69 1.72 1.77 1.78 1.97 2.00 1.83 1.82 1.84 1.78 1.71 1.72 1.77 1.74 1.77 1.77 1.78 1.79 1.85 1.99 2.11 2.13 2.09 2.07 2.11 2.03 1.86 1.59
1.68 1.81 1.93 1.97 1.98 1.87 1.77 1.80 1.88 1.86 1.77 1.70 1.73 1.73 1.69 1.77 1.86 1.95 2.00 1.99 2.00 1.87 1.73 1.72 1.60 1.55 1.51 1.53 1.64 1.67 1.72 1.70 1.59 1.62 1.81 1.91 1.97 2.00 1.92 1.86 1.85 1.84 1.72 1.47
1.51 1.58 1.56 1.63 1.63 1.65 1.64 1.63 1.67 1.69 1.64 1.66 1.74 1.81 1.77 1.80 1.90 2.03 2.09 2.14 2.15 1.93 1.62 1.43 1.36 1.24 1.22 1.19 1.22 1.36 1.52 1.62 1.63 1.66 1.76 1.76 1.77 1.89 1.92 1.90 1.89 1.84 1.66 1.51
1.39 1.47 1.49 1.45 1.37 1.43 1.45 1.49 1.54 1.58 1.56 1.62 1.73 1.74 1.75 1.80 1.87 2.00 2.08 2.12 2.09 1.91 1.63 1.41 1.17 1.02 0.95 0.93 1.01 1.08 1.24 1.41 1.46 1.48 1.53 1.60 1.68 1.79 1.87 1.82 1.81 1.83 1.73 1.62
1.34 1.39 1.35 1.34 1.34 1.37 1.36 1.31 1.35 1.49 1.50 1.52 1.65 1.75 1.83 1.81 1.73 1.84 1.99 2.01 1.91 1.81 1.69 1.57 1.29 1.12 0.95 0.93 0.96 1.02 1.18 1.35 1.36 1.31 1.31 1.42 1.55 1.62 1.65 1.61 1.56 1.52 1.46 1.40
1.39 1.33 1.25 1.24 1.27 1.33 1.38 1.37 1.30 1.30 1.33 1.45 1.53 1.61 1.71 1.68 1.69 1.73 1.70 1.85 1.84 1.88 1.70 1.52 1.33 1.23 1.14 1.04 0.92 0.99 1.13 1.20 1.23 1.18 1.17 1.28 1.47 1.54 1.55 1.56 1.56 1.51 1.44 1.40
1.50 1.40 1.32 1.30 1.26 1.28 1.32 1.34 1.28 1.29 1.43 1.60 1.62 1.65 1.70 1.64 1.65 1.79 1.73 1.51 1.49 1.64 1.49 1.36 1.36 1.27 1.13 1.00 0.95 1.04 1.20 1.27 1.24 1.13 1.10 1.21 1.32 1.38 1.44 1.44 1.47 1.50 1.50 1.43
1.54 1.39 1.38 1.42 1.37 1.35 1.48 1.39 1.33 1.39 1.49 1.61 1.57 1.58 1.64 1.64 1.58 1.48 1.44 1.37 1.32 1.41 1.26 1.20 1.17 1.15 1.12 1.06 1.08 1.11 1.16 1.19 1.20 1.13 1.12 1.14 1.14 1.19 1.27 1.36 1.47 1.53 1.48 1.41
1.57 1.47 1.43 1.55 1.60 1.52 1.59 1.48 1.40 1.44 1.46 1.55 1.49 1.46 1.52 1.50 1.57 1.50 1.37 1.26 1.29 1.31 1.21 1.19 1.13 1.11 1.07 1.13 1.21 1.20 1.20 1.21 1.23 1.19 1.16 1.14 1.13 1.16 1.26 1.41 1.56 1.59 1.51 1.47
1.68 1.69 1.66 1.67 1.62 1.53 1.52 1.42 1.35 1.37 1.51 1.73 1.62 1.45 1.52 1.51 1.44 1.46 1.47 1.37 1.32 1.35 1.29 1.24 1.19 1.18 1.16 1.26 1.36 1.36 1.30 1.28 1.28 1.24 1.25 1.30 1.33 1.36 1.42 1.53 1.56 1.49 1.39 1.32
1.64 1.60 1.59 1.52 1.47 1.49 1.53 1.47 1.42 1.46 1.61 1.85 1.78 1.50 1.48 1.47 1.45 1.48 1.48 1.48 1.43 1.40 1.39 1.34 1.26 1.22 1.22 1.27 1.29 1.29 1.29 1.30 1.30 1.27 1.26 1.30 1.36 1.41 1.40 1.43 1.42 1.33 1.27 1.18